• In Belarus
  • List of Countries
  • For 7 days
  • Water Temperature
  • Satellite Maps
  • Weather Map
  • Weather Widgets
  • user-avatar
    Login

    Hourly Weather Sainte-Agathe-des-Monts

    Today, 20 January, Saturday

    Time Temperature Precipitation Wind Pressure Humidity
    00:00 -6°C° 0.1 mm 5 mps 719 mmHg 91%
    01:00 -6°C° 0 mm 5 mps 717 mmHg 91%
    02:00 -5°C° 0.1 mm 6 mps 717 mmHg 90%
    03:00 -4°C° 0.1 mm 6 mps 716 mmHg 88%
    04:00 -4°C° 0.1 mm 7 mps 716 mmHg 87%
    05:00 -4°C° 0.1 mm 7 mps 716 mmHg 86%
    06:00 -4°C° 0.1 mm 7 mps 716 mmHg 85%
    07:00 -4°C° 0 mm 6 mps 716 mmHg 83%
    08:00 -3°C° 0.1 mm 6 mps 717 mmHg 84%
    09:00 -3°C° 0.1 mm 6 mps 717 mmHg 84%
    10:00 -3°C° 0.1 mm 6 mps 718 mmHg 85%
    11:00 -2°C° 0.1 mm 6 mps 718 mmHg 85%
    12:00 -2°C° 0.1 mm 6 mps 719 mmHg 84%
    13:00 -2°C° 0.1 mm 6 mps 719 mmHg 84%
    14:00 -2°C° 0.1 mm 6 mps 720 mmHg 83%
    15:00 -2°C° 0.1 mm 6 mps 721 mmHg 82%
    16:00 -1°C° 0.1 mm 5 mps 722 mmHg 82%
    17:00 -4°C° 0 mm 5 mps 723 mmHg 81%
    18:00 -4°C° 0 mm 4 mps 724 mmHg 81%
    19:00 -7°C° 0 mm 4 mps 725 mmHg 81%
    20:00 -7°C° 0 mm 3 mps 725 mmHg 82%
    21:00 -8°C° 0 mm 3 mps 726 mmHg 83%
    22:00 -9°C° 0 mm 3 mps 727 mmHg 85%
    23:00 -9°C° 0 mm 2 mps 727 mmHg 85%

    Tomorrow, 21 January, Sunday

    Time Temperature Precipitation Wind Pressure Humidity
    00:00 -9°C° 0 mm 2 mps 728 mmHg 86%
    01:00 -10°C° 0 mm 2 mps 728 mmHg 86%
    02:00 -9°C° 0 mm 1 mps 729 mmHg 87%
    03:00 -10°C° 0 mm 1 mps 729 mmHg 88%
    04:00 -10°C° 0 mm 1 mps 729 mmHg 89%
    05:00 -10°C° 0 mm 1 mps 730 mmHg 89%
    06:00 -10°C° 0 mm 1 mps 730 mmHg 88%
    07:00 -10°C° 0 mm 1 mps 731 mmHg 88%
    08:00 -9°C° 0 mm 1 mps 731 mmHg 84%
    09:00 -8°C° 0 mm 1 mps 731 mmHg 79%
    10:00 -7°C° 0 mm 1 mps 732 mmHg 75%
    11:00 -6°C° 0 mm 1 mps 732 mmHg 74%
    12:00 -4°C° 0 mm 1 mps 732 mmHg 74%
    13:00 -3°C° 0 mm 1 mps 731 mmHg 73%
    14:00 -3°C° 0 mm 1 mps 731 mmHg 77%
    15:00 -3°C° 0 mm 1 mps 732 mmHg 82%
    16:00 -3°C° 0 mm 1 mps 732 mmHg 86%
    17:00 -3°C° 0 mm 1 mps 732 mmHg 89%
    18:00 -4°C° 0 mm 1 mps 732 mmHg 91%
    19:00 -5°C° 0 mm 0 mps 732 mmHg 94%
    20:00 -5°C° 0 mm 0 mps 732 mmHg 94%
    21:00 -5°C° 0 mm 0 mps 733 mmHg 95%
    22:00 -5°C° 0 mm 0 mps 733 mmHg 95%
    23:00 -5°C° 0.1 mm 0 mps 733 mmHg 95%

    Day after tomorrow, 22 January, Monday

    Time Temperature Precipitation Wind Pressure Humidity
    00:00 -4°C° 0.1 mm 1 mps 733 mmHg 96%
    01:00 -4°C° 0.1 mm 1 mps 733 mmHg 96%
    02:00 -4°C° 0.1 mm 1 mps 733 mmHg 95%
    03:00 -4°C° 0.1 mm 1 mps 734 mmHg 95%
    04:00 -7°C° 0.1 mm 2 mps 734 mmHg 94%
    05:00 -7°C° 0.1 mm 2 mps 734 mmHg 94%
    06:00 -8°C° 0.1 mm 2 mps 734 mmHg 93%
    07:00 -9°C° 0.1 mm 3 mps 735 mmHg 92%
    08:00 -9°C° 0 mm 3 mps 735 mmHg 89%
    09:00 -9°C° 0 mm 3 mps 735 mmHg 86%
    10:00 -9°C° 0 mm 3 mps 735 mmHg 84%
    11:00 -9°C° 0 mm 3 mps 735 mmHg 82%
    12:00 -10°C° 0 mm 4 mps 734 mmHg 80%
    13:00 -9°C° 0 mm 4 mps 734 mmHg 78%
    14:00 -10°C° 0.2 mm 4 mps 733 mmHg 81%
    15:00 -10°C° 0.2 mm 4 mps 732 mmHg 84%
    16:00 -11°C° 0.2 mm 5 mps 732 mmHg 87%
    17:00 -11°C° 1.1 mm 5 mps 731 mmHg 89%
    18:00 -11°C° 1.1 mm 5 mps 731 mmHg 92%
    19:00 -11°C° 1.1 mm 6 mps 730 mmHg 94%
    20:00 -11°C° 1.6 mm 6 mps 729 mmHg 94%
    21:00 -10°C° 1.6 mm 6 mps 728 mmHg 93%
    22:00 -10°C° 1.6 mm 6 mps 727 mmHg 93%
    23:00 -8°C° 1.3 mm 5 mps 726 mmHg 94%

    23 January, Tuesday

    Time Temperature Precipitation Wind Pressure Humidity
    00:00 -8°C° 1.3 mm 5 mps 725 mmHg 95%
    01:00 -7°C° 1.3 mm 4 mps 724 mmHg 96%
    02:00 -7°C° 1.7 mm 4 mps 724 mmHg 96%
    03:00 -5°C° 1.7 mm 4 mps 723 mmHg 96%
    04:00 -5°C° 1.7 mm 3 mps 722 mmHg 97%
    05:00 -4°C° 1.3 mm 4 mps 721 mmHg 97%
    06:00 -4°C° 1.3 mm 4 mps 720 mmHg 96%
    07:00 -3°C° 1.3 mm 4 mps 719 mmHg 96%
    08:00 -2°C° 0.4 mm 4 mps 718 mmHg 97%
    09:00 -1°C° 0.4 mm 3 mps 717 mmHg 98%
    10:00 0°C° 0.4 mm 3 mps 716 mmHg 98%
    11:00 0°C° 0.4 mm 3 mps 716 mmHg 99%
    12:00 +1°C° 0.4 mm 2 mps 715 mmHg 99%
    13:00 +1°C° 0.4 mm 2 mps 714 mmHg 99%
    14:00 0°C° 0.3 mm 3 mps 714 mmHg 99%
    15:00 0°C° 0.3 mm 3 mps 714 mmHg 98%
    16:00 -1°C° 0.3 mm 4 mps 714 mmHg 98%
    17:00 -1°C° 0.1 mm 4 mps 714 mmHg 95%
    18:00 -1°C° 0.1 mm 4 mps 714 mmHg 93%
    19:00 -1°C° 0.1 mm 4 mps 713 mmHg 91%
    20:00 -2°C° 0.2 mm 4 mps 713 mmHg 92%
    21:00 -2°C° 0.2 mm 4 mps 713 mmHg 92%
    22:00 -2°C° 0.2 mm 4 mps 713 mmHg 93%
    23:00 -2°C° 0.2 mm 4 mps 714 mmHg 92%

    24 January, Wednesday

    Time Temperature Precipitation Wind Pressure Humidity
    00:00 -4°C° 0.2 mm 5 mps 714 mmHg 92%
    01:00 -4°C° 0.2 mm 5 mps 714 mmHg 91%
    02:00 -6°C° 0 mm 5 mps 715 mmHg 90%
    03:00 -8°C° 0 mm 5 mps 716 mmHg 88%
    04:00 -11°C° 0 mm 6 mps 717 mmHg 86%
    05:00 -12°C° 0.1 mm 6 mps 718 mmHg 86%
    06:00 -14°C° 0.1 mm 6 mps 719 mmHg 86%
    07:00 -15°C° 0.1 mm 6 mps 721 mmHg 85%
    08:00 -16°C° 0.1 mm 6 mps 722 mmHg 84%
    09:00 -16°C° 0.1 mm 6 mps 723 mmHg 83%
    10:00 -17°C° 0.1 mm 6 mps 724 mmHg 82%
    11:00 -17°C° 0 mm 6 mps 724 mmHg 81%
    12:00 -17°C° 0 mm 6 mps 724 mmHg 80%
    13:00 -17°C° 0 mm 6 mps 724 mmHg 79%
    14:00 -17°C° 0 mm 6 mps 725 mmHg 79%
    15:00 -18°C° 0 mm 6 mps 726 mmHg 79%
    16:00 -18°C° 0 mm 6 mps 726 mmHg 80%
    17:00 -20°C° 0 mm 6 mps 727 mmHg 80%
    18:00 -21°C° 0 mm 6 mps 728 mmHg 81%
    19:00 -22°C° 0 mm 6 mps 729 mmHg 81%
    20:00 -23°C° 0 mm 6 mps 729 mmHg 82%
    21:00 -22°C° 0 mm 5 mps 730 mmHg 82%
    22:00 -24°C° 0 mm 5 mps 730 mmHg 82%
    23:00 -25°C° 0 mm 5 mps 731 mmHg 83%

    25 January, Thursday

    Time Temperature Precipitation Wind Pressure Humidity
    00:00 -25°C° 0 mm 5 mps 731 mmHg 83%
    01:00 -26°C° 0 mm 5 mps 732 mmHg 84%
    02:00 -27°C° 0 mm 5 mps 732 mmHg 84%
    03:00 -26°C° 0 mm 4 mps 733 mmHg 84%
    04:00 -27°C° 0 mm 4 mps 733 mmHg 84%
    05:00 -27°C° 0 mm 4 mps 734 mmHg 85%
    06:00 -27°C° 0 mm 4 mps 734 mmHg 85%
    07:00 -29°C° 0 mm 4 mps 735 mmHg 86%
    08:00 -27°C° 0 mm 4 mps 735 mmHg 85%
    09:00 -26°C° 0 mm 4 mps 736 mmHg 84%
    10:00 -26°C° 0 mm 4 mps 736 mmHg 83%
    11:00 -24°C° 0 mm 4 mps 736 mmHg 82%
    12:00 -23°C° 0 mm 4 mps 736 mmHg 80%
    13:00 -22°C° 0 mm 4 mps 736 mmHg 78%
    14:00 -20°C° 0 mm 4 mps 736 mmHg 79%
    15:00 -20°C° 0 mm 4 mps 736 mmHg 79%
    16:00 -20°C° 0 mm 4 mps 736 mmHg 79%
    17:00 -22°C° 0 mm 4 mps 737 mmHg 82%
    18:00 -21°C° 0 mm 3 mps 737 mmHg 85%
    19:00 -22°C° 0 mm 3 mps 738 mmHg 87%
    20:00 -22°C° 0 mm 3 mps 738 mmHg 88%
    21:00 -23°C° 0 mm 3 mps 738 mmHg 88%
    22:00 -21°C° 0 mm 2 mps 738 mmHg 89%
    23:00 -21°C° 0 mm 2 mps 738 mmHg 90%
    Show more